Tracking 25723 objects as of 26-Jun-2022
HD Live streaming from Space Station
objects crossing your sky now

STARLINK-1810

Track STARLINK-1810 now!
10-day predictions
STARLINK-1810 is classified as:


NORAD ID: 46709
Int'l Code: 2020-073AR
Perigee: 553.2 km
Apogee: 555.5 km
Inclination: 53.1 °
Period: 95.6 minutes
Semi major axis: 6925 km
RCS: Unknown
Launch date: October 18, 2020
Source: United States (US)
Launch site: AIR FORCE EASTERN TEST RANGE (AFETR)
aabbcc
Your satellite tracking list
Your tracking list is empty




NASA's NSSDC Master Catalog

Two Line Element Set (TLE):
1 46709U 20073AR  22177.48957252  .00000160  00000-0  29642-4 0  9993
2 46709  53.0541 207.0085 0001679  62.2875 297.8284 15.06397723 93107
Source of the keplerian elements: AFSPC